Location: Emblem
(62.4273°N, 6.4710°E)
Time: 10:45:57
(UTC+01:00)

Transit 4A - Visible Passes

Search period start: 11 December 2023 00:00
Search period end: 21 December 2023 00:00
Orbit: 865 x 979 km, 66.8° (Epoch: 09 December)

Date Brightness Start Highest point End Pass type
(mag) Time Alt. Az. Time Alt. Az. Time Alt. Az.
11 Dec 9.6 18:17:53 10° SSE 18:20:16 17° SE 18:20:16 17° SE visible
11 Dec 9.4 20:01:06 10° SSW 20:03:48 26° SSW 20:03:48 26° SSW visible
11 Dec 10.5 21:47:09 10° WSW 21:47:21 11° WSW 21:47:21 11° WSW visible
12 Dec 9.2 18:25:56 10° SSE 18:29:46 23° SE 18:29:46 23° SE visible
12 Dec 9.1 20:09:59 10° SW 20:13:18 32° SSW 20:13:18 32° SSW visible
12 Dec 10.5 21:56:25 10° WSW 21:56:49 12° WSW 21:56:49 12° WSW visible
13 Dec 8.8 18:34:16 10° S 18:39:11 29° SE 18:39:11 29° SE visible
13 Dec 9.0 20:19:00 10° SW 20:22:41 37° SW 20:22:41 37° SW visible
13 Dec 10.5 22:05:43 10° W 22:06:14 12° W 22:06:14 12° W visible
14 Dec 9.7 17:01:55 10° ESE 17:03:47 11° E 17:04:59 11° E visible
14 Dec 8.5 18:42:47 10° S 18:48:30 37° ESE 18:48:30 37° ESE visible
14 Dec 8.9 20:28:05 10° SW 20:32:02 41° SW 20:32:02 41° SW visible
14 Dec 10.5 22:15:01 10° W 22:15:33 13° W 22:15:33 13° W visible
15 Dec 9.5 17:08:58 10° SE 17:12:26 15° ESE 17:14:16 14° E visible
15 Dec 8.2 18:51:28 10° SSW 18:57:28 46° SE 18:57:46 45° ESE visible
15 Dec 8.9 20:37:15 10° WSW 20:41:17 42° WSW 20:41:17 42° WSW visible
15 Dec 10.5 22:24:18 10° W 22:24:48 12° W 22:24:48 12° W visible
16 Dec 9.3 17:16:46 10° SSE 17:21:11 20° ESE 17:23:28 17° E visible
16 Dec 8.0 19:00:17 10° SSW 19:06:28 56° SE 19:06:59 54° ESE visible
16 Dec 9.0 20:46:29 10° WSW 20:50:29 41° W 20:50:29 41° W visible
16 Dec 10.6 22:33:37 10° WNW 22:34:00 12° WNW 22:34:00 12° WNW visible
17 Dec 9.1 17:24:55 10° SSE 17:29:59 25° ESE 17:32:37 19° E visible
17 Dec 7.8 19:09:13 10° SW 19:15:31 67° SE 19:16:08 63° ESE visible
17 Dec 9.1 20:55:44 10° WSW 20:59:38 39° W 20:59:38 39° W visible
17 Dec 10.6 22:42:54 10° WNW 22:43:09 11° WNW 22:43:09 11° WNW visible
18 Dec 8.8 17:33:19 10° S 17:38:49 32° ESE 17:41:44 22° ENE visible
18 Dec 7.8 19:18:14 10° SW 19:24:36 79° SE 19:25:14 71° E visible
18 Dec 9.2 21:05:02 10° W 21:08:45 36° W 21:08:45 36° W visible
18 Dec 10.7 22:52:10 10° WNW 22:52:15 10° WNW 22:52:15 10° WNW visible
19 Dec 8.5 17:41:54 10° S 17:47:44 40° ESE 17:50:47 24° ENE visible
19 Dec 7.8 19:27:21 10° SW 19:33:44 89° NW 19:34:18 76° NE visible
19 Dec 9.4 21:14:20 10° W 21:17:48 33° WNW 21:17:48 33° WNW visible
20 Dec 9.6 16:07:46 10° SE 16:11:34 17° ESE 16:15:20 10° ENE visible
20 Dec 8.3 17:50:37 10° SSW 17:56:41 49° SE 17:59:49 27° ENE visible
20 Dec 7.8 19:36:33 10° WSW 19:42:55 80° NNW 19:43:20 75° NNE visible
20 Dec 9.5 21:23:38 10° W 21:26:50 30° WNW 21:26:50 30° WNW visible
